Other Public Products
Issued by NWS Grand Forks, ND

Home | Current Version | Previous Version | Graphics & Text | Print | Product List | Glossary On
Versions: 1 2 3 4 5 6 7 8 9 10 11 12 13 14 15 16 17 18 19 20 21 22 23 24 25 26 27 28 29 30 31 32 33 34 35 36 37 38 39 40 41 42 43 44 45 46 47 48 49 50
000
FPUS83 KFGF 291610
OPUFGF
PRAIRIE TO PINES WEATHER ROUNDUP
NATIONAL WEATHER SERVICE EASTERN NORTH DAKOTA/GRAND FORKS ND
1100 AM CDT MON AUG 29 2016

 **SATELLITE DATA USED TO AUGMENT SKY COVER AT AUTOMATED STATIONS**
 *****  WEATHER ACROSS EASTERN NORTH DAKOTA  *****

CITY           SKY/WX    TMP DP  RH WIND       PRES   REMARKS
GRAND FORKS    PTSUNNY   72  62  71 NW9       30.16R
GRAND FORKS AF SUNNY     71  61  71 N8        30.17R
GRAND CITY NWS   N/A     70 N/A N/A NE6         N/A
BUXTON           N/A     73  71  92 NW9         N/A
DEVILS LAKE    SUNNY     65  52  62 N13       30.24R
FARGO          CLOUDY    76  69  79 W7        30.14R
WAHPETON ARPT  SUNNY     79  64  61 S12G18    30.14R
$$

 *****  WEATHER ACROSS CENTRAL AND WESTERN NORTH DAKOTA  *****

CITY           SKY/WX    TMP DP  RH WIND       PRES   REMARKS
JAMESTOWN      SUNNY     72  61  68 N10       30.21R
BISMARCK       CLOUDY    67  50  54 N12       30.26R
MINOT          SUNNY     64  47  53 N10       30.27S
MINOT AFB      SUNNY     63  47  56 N13       30.27R
GARRISON         N/A     64  48  56 N8        30.27R
WILLISTON      SUNNY     62  44  51 NE8       30.32R
DICKINSON      SUNNY     67  46  47 N12       30.30R
HETTINGER      SUNNY     69  50  50 NE16      30.29R
$$

 *****  OTHER OBSERVATIONS NORTHEAST NORTH DAKOTA  *****

CITY           SKY/WX    TMP DP  RH WIND       PRES   REMARKS
WALHALLA       NOT AVBL
LANGDON        FAIR      68  54  60 NW10      30.22R
CAVALIER       FAIR      68  59  73 NW12      30.18R
GRAFTON        PTSUNNY   70  61  73 NW10      30.19R
CANDO          NOT AVBL
FORT TOTTEN    NOT AVBL
ROLLA          FAIR      59  48  67 N15G23    30.26R
RUGBY          FAIR      63  50  63 NW8       30.25S
 ***** THE ABOVE OBSERVATIONS ARE NON NWS ARE NOT QUALITY
        CONTROLLED AND MAY MIS-REPORT RAIN FOR SNOW...
$$

 *****  OTHER OBSERVATIONS SOUTHEAST NORTH DAKOTA *****

CITY           SKY/WX    TMP DP  RH WIND       PRES   REMARKS
COOPERSTOWN    NOT AVBL
VALLEY CITY    FAIR      72  70  94 N12       30.21R
OAKES            N/A    N/A N/A N/A MISG        N/A
GWINNER        PTSUNNY   73  70  88 NW3       30.17R
SHEYENNE NWR     N/A     77  70  79 W3        29.95S
BUFFALO          N/A     73  65  74 N10         N/A
WYNDMERE       NOT AVBL
 ***** THE ABOVE OBSERVATIONS ARE NON NWS ARE NOT QUALITY
       CONTROLLED AND MAY MIS-REPORT RAIN FOR SNOW...
$$

  *****  WEATHER ACROSS NORTHERN MINNESOTA  *****

CITY           SKY/WX    TMP DP  RH WIND       PRES   REMARKS
FLAG ISLAND    CLOUDY    66  63  88 W5        30.10R
WARROAD        NOT AVBL
ROSEAU         SUNNY     72  66  83 W12       30.12R
HALLOCK        PTSUNNY   70  63  78 NW12      30.15R
THF RVR FALLS  CLOUDY    70  66  87 W9        30.16R
HALSTAD          N/A     73  68  86 W5          N/A
FOSSTON        SUNNY     73  66  78 SW13      30.15S
BAUDETTE       CLOUDY    71  66  84 SW9       30.10R
WASKISH        SUNNY     72  66  83 W7        30.13S
CROOKSTON      PTSUNNY   72  66  83 NW9       30.16R
$$
  *****  WEATHER ACROSS CENTRAL AND WEST MINNESOTA  *****

CITY           SKY/WX    TMP DP  RH WIND       PRES   REMARKS
BEMIDJI        SUNNY     74  65  75 SW8       30.14S
PARK RAPIDS    SUNNY     74  65  73 SW9       30.14R
WADENA         SUNNY     73  64  73 SW10      30.14S
DETROIT LAKES  SUNNY     75  64  69 SW10      30.16R
MOORHEAD       PTSUNNY   75  70  83 SW8       30.15R
FERGUS FALLS   SUNNY     79  68  69 SW13      30.14S
ELBOW LAKE     FAIR      78  68  72 S10       30.15R
MORRIS MN      NOT AVBL
STAPLES        MOSUNNY   70  63  78 S7        30.14F
WHEATON        SUNNY     81  72  74 S15       30.16R
$$
  *****  WEATHER ELSEWHERE ACROSS MINNESOTA  *****

CITY           SKY/WX    TMP DP  RH WIND       PRES   REMARKS
DULUTH         CLOUDY    70  63  78 W6        30.15R
INTRNTL FALLS  PTSUNNY   69  63  81 SW8       30.11R
ELY            CLOUDY    70  63  78 SW7       30.13F
CLOQUET        CLOUDY    66  63  88 CALM      30.14S
BRAINERD       PTSUNNY   68  64  87 SW10      30.13F
HIBBING        CLOUDY    66  62  87 CALM      30.13F
ALEXANDRIA     SUNNY     72  64  76 S12       30.17S
SAINT CLOUD    CLOUDY    77  67  71 SE17G26   30.12F
MINNEAPOLIS    CLOUDY    78  69  73 E9        30.22F
$$

  *****  WEATHER ACROSS SOUTH DAKOTA  *****

CITY           SKY/WX    TMP DP  RH WIND       PRES   REMARKS
SIOUX FALLS    PTSUNNY   79  69  71 S5        30.19R
BROOKINGS        N/A     76  69  79 S7        30.17
WATERTOWN      MOSUNNY   80  70  71 SE8       30.17R
HURON          SUNNY     81  67  62 W5        30.12R
SISSETON         N/A     78  70  76 S12G22    30.14R
ABERDEEN       CLOUDY    71  66  84 NE9       30.15R
MITCHELL       SUNNY     80  69  69 S7        30.15R
PIERRE         SUNNY     78  63  59 N8        30.13R
MOBRIDGE       SUNNY     77  58  51 N15G22    30.18R
RAPID CITY     SUNNY     71  54  54 N16       30.28R
$$

  *****  SOME WEATHER IN NEARBY STATES *****

CITY           SKY/WX    TMP DP  RH WIND       PRES   REMARKS
GLASGOW MT     SUNNY     61  44  53 E10       30.31S
GREAT FALLS MT SUNNY     62  45  53 NE3       30.25F
CHEYENNE WY    CLOUDY    73  40  30 N8        30.36R
SCOTTSBLUFF NE SUNNY     74  54  49 NW7       30.24R
OMAHA NE       PTSUNNY   78  69  73 S5        30.20R
DES MOINES IA  CLOUDY    77  73  87 S7        30.22R
DAVENPORT IA   MOSUNNY   81  72  74 CALM      30.24R
CHICAGO IL     PTSUNNY   82  70  66 SE8       30.25R
EAU CLAIRE WI  CLOUDY    74  68  81 E3        30.25S
LA CROSSE WI   MOSUNNY   82  71  69 SE5       30.24S
$$

  *****  SOME NATIONAL WEATHER *****

CITY           SKY/WX    TMP DP  RH WIND       PRES   REMARKS
LA GUARDIA NY  MOSUNNY   88  65  46 NW10      30.09F HX  90
RALEIGH NC     CLOUDY    82  65  56 NE9       30.17S
ATLANTA GA     PTSUNNY   83  70  64 E8        30.16S
NEW ORLEANS LA PTSUNNY   90  76  63 NE13      29.99S HX 101
OKLAHOMA CITY  CLOUDY    82  68  62 E3        30.17R
ALBUQUERQUE NM MOSUNNY   71  46  40 W6        30.30R
SALT LAKE CITY MOSUNNY   78  38  23 SE8       30.23S
LOS ANGELES CA SUNNY     72  62  71 CALM      29.98R
BOISE ID       SUNNY     73  46  38 NE5       30.11R SMOKE
SEATTLE WA     MOSUNNY   60  54  80 CALM      30.08S
$$

*** WEATHER ACROSS MANITOBA...SASKATCHEWAN AND ONTARIO ***
                ***ONTARIO***

CITY           SKY/WX    TMP DP  RH WIND       PRES   REMARKS
GERALDTON      LGT RAIN  63  57  82 S9        30.18F
THUNDER BAY    CLOUDY    66  64  94 N3        30.13R
SIOUX LOOKOUT  CLOUDY    68  63  83 W7        30.09R
TORONTO        MOSUNNY   77  59  53 NE6       30.25F
BIG TROUT LK   PTSUNNY   66  59  77 S6        29.96F
PICKLE LAKE    CLOUDY    66  61  82 S9        30.05S
DRYDEN         CLOUDY    68  63  83 W18G24    30.09R
KENORA         NOT AVBL
$$
                *** MANITOBA***

CITY           SKY/WX    TMP DP  RH WIND       PRES   REMARKS
BRANDON        MOSUNNY   61  48  63 W15       30.24S
DAUPHIN        SUNNY     61  48  63 W10G17    30.21R
ISLAND LAKE    CLOUDY    57  54  88 W14G21    29.99R
PILOT MOUND      N/A     61  54  77 NW10        N/A
THE PAS        MOSUNNY   57  45  62 W16G22    30.08R
THOMPSON       CLOUDY    57  48  72 W15G25    29.91R
WINNIPEG       MOSUNNY   66  55  68 NW13G20   30.16R
LYNN LAKE      CLOUDY    52  50  93 MISG      29.88R FOG
CHURCHILL      DRIZZLE   52  50  93 E12       29.83S FOG
GILLAM         CLOUDY    57  54  88 W14       29.86R
$$
                ***SASKATCHEWAN***

CITY           SKY/WX    TMP DP  RH WIND       PRES   REMARKS
ESTEVAN        MOSUNNY   61  46  59 NW5       30.31R
KINDERSLEY     MOSUNNY   54  45  71 SE3       30.29S
LLOYDMINSTER   MOSUNNY   54  43  66 VRB2      30.28S
PRINCE ALBERT  MOSUNNY   55  41  58 W13       30.25S
REGINA         MOSUNNY   55  43  62 N7        30.32R
YORKTON        SUNNY     59  43  55 NW13      30.27R  C1F1C2F2C3F3C4F4C5F5C6F6C7F7C8F8C9F9CaFaCbFbCcFcCdFdCe!



USA.gov is the U.S. government's official web portal to all federal, state and local government web resources and services.